Effective Sunday, March 17, 2024, the National Weather Service National Data Buoy Center will discontinue its Dial-A-Buoy Interactive Voice Response system. For more information, see Service Change Notice 24-06 (PDF).

Station SAUF1 - St. Augustine, FL Image indicating link to RSS feed of recent meteorological observations for station SAUF1


Conditions at SAUF1 as of
(6:00 pm EST)
2300 GMT on 02/27/2024:
     

Click on the graph icon in the table below to see a time series plot of the last five days of that observation.

5-day plot - Wind Direction Wind Direction (WDIR): S ( 170 deg true )
5-day plot - Wind Speed Wind Speed (WSPD): 14 kts
5-day plot - Wind Gust Wind Gust (GST): 15 kts
5-day plot - Atmospheric Pressure Atmospheric Pressure (PRES):30.07 in
5-day plot - Pressure Tendency Pressure Tendency (PTDY):+0.00 in ( Steady )
5-day plot - Air Temperature Air Temperature (ATMP): 64.0 °F
5-day plot - Water Temperature Water Temperature (WTMP): 62.6 °F
5-day plot - Dew Point Dew Point (DEWP): 64.0 °F
5-day plot - Wind Speed at 10 Meters Wind Speed at 10 meters (WSPD10M): 14 kts
5-day plot - Wind Speed at 20 Meters Wind Speed at 20 meters (WSPD20M): 16 kts
5-day plot -  Wind Speed, Wind Gust and Atmospheric Pressure Combined plot of Wind Speed, Gust, and Air Pressure
Continuous Winds
TIME
(EST)
5-day plot - Wind Direction WDIR 5-day plot - Wind Speed WSPD
6:00 pmS ( 169 deg ) 14 kts
5:50 pmSSE ( 167 deg ) 14 kts
5:40 pmSSE ( 166 deg ) 13 kts
5:30 pmSSE ( 167 deg ) 14 kts
5:20 pmS ( 169 deg ) 13 kts
5:10 pmSSE ( 168 deg ) 12 kts
 
Peak gust during the measurement hour
TIME
(EST)
5-day plot - Gust Direction GDR 5-day plot - Gust Speed GST
5:32 pmS ( 170 deg ) 16 kts
Previous observations
TIME
(EST)
5-day plot - Wind Direction
WDIR
 
5-day plot - Wind Speed
WSPD
kts
5-day plot - Wind Gust
GST
kts
5-day plot - Wave Height
WVHT
ft
5-day plot - Dominant Wave Period
DPD
sec
5-day plot - Average Wave Period
APD
sec
5-day plot - Mean Wave Direction
MWD
 
5-day plot - Atmospheric Pressure
PRES
in
5-day plot - Pressure Tendency
PTDY
in
5-day plot - Air Temperature
ATMP
°F
5-day plot - Water Temperature
WTMP
°F
5-day plot - Dew Point
DEWP
°F
5-day plot - Salinity
SAL
psu
5-day plot - Visibility
VIS
nmi
5-day plot - Tide (above MLLW)
TIDE
ft
2024-02-27 05:00 pm S 13 15----30.07-0.04 64.4 62.6 64.4---
2024-02-27 04:00 pm S 12 13----30.08-0.06 64.4 62.6 64.4---
2024-02-27 03:00 pm SE 12 13----30.08-0.08 64.0 62.1 64.0---
2024-02-27 02:00 pm SE 12 13----30.11-0.05 63.5 61.0 63.5---
2024-02-27 01:00 pm SE 9 9----30.14-0.02 64.0 60.8 63.5---
2024-02-27 12:00 pm SE 10 11----30.16+0.02 64.2 61.0 64.0---
2024-02-27 11:00 amSSE 9 10----30.16+0.00 62.4 60.4 62.4---
2024-02-27 10:00 amSSE 6 7----30.16+0.02 61.7 60.4 61.7---
2024-02-27 09:00 am S 9 9----30.14+0.01 59.7 60.4 59.7---
2024-02-27 08:00 am S 9 10----30.15+0.02 58.8 60.4 58.8---
2024-02-27 07:00 am S 5 6----30.14+0.01 58.3 60.6 58.3---
2024-02-27 06:00 am S 4 4----30.13+0.02 57.0 60.6 57.0---
2024-02-27 05:00 amSSW 4 5----30.13+0.00 55.0 60.6 55.0---
2024-02-27 04:00 am SW 2 3----30.13-0.01 56.5 60.6 56.5---
2024-02-27 03:00 am S 5 6----30.11-0.04 58.5 60.6 58.5---
2024-02-27 02:00 am S 5 6----30.14-0.03 59.2 60.8 57.9---
2024-02-27 01:00 am S 4 5----30.14-0.02 59.5 61.0 56.8---
2024-02-27 12:00 am SW 7 9----30.15+0.01 59.9 61.0 55.8---
2024-02-26 11:00 pm SW 7 9----30.16+0.03 59.5 61.2 55.0---
2024-02-26 10:00 pmSSW 7 8----30.16+0.02 61.7 61.3 61.7---
2024-02-26 09:00 pmSSE 7 8----30.14+0.00 61.7 61.3 61.7---
2024-02-26 08:00 pmSSE 7 8----30.14+0.00 62.2 61.3 62.2---
2024-02-26 07:00 pmSSE 7 7----30.13+0.00 62.1 61.3 62.1---
2024-02-26 06:00 pmSSE 7 8----30.14-0.01 62.6 61.9 60.6---